Flag for Switzerland Weather past 2 weeks in Winterthur, Switzerland

Now
41 °F

Sprinkles. Partly cloudy.


Feels Like: 31 °F
Forecast: 36 / 43 °F
Wind: 22 mph from West

Location: Zurich-Kloten

Current Time: Apr 1, 2015 at 7:30:51 AM

Latest Report: Apr 1, 2015 at 6:50 AM


Visibility: 6 mi

Pressure: 30.09 "Hg

Humidity: 76%

Dew point: 34 °F

Location of WinterthurLocation

Historic Weather in Winterthur — Graph

°F

Winterthur temperature yesterday

Maximum temperature yesterday: 59 °F (at 11:20 AM)
Minimum temperature yesterday: 48 °F (at 12:20 AM)
Average temperature yesterday: 53 °F

Past Weeks' High & Low Weather Summary

 TemperatureHumidityPressure
High64 °F (Mar 17, 3:20 PM)100% (Mar 18, 6:20 AM)30.27 "Hg (Mar 18, 6:20 AM)
Low28 °F (Mar 24, 6:50 AM)32% (Mar 18, 4:20 PM)29.59 "Hg (Mar 25, 12:20 PM)
Average46 °F74%29.99 "Hg
* Reported Mar 17 5:20 AM — Apr 1 6:20 AM, Winterthur, Weather by CustomWeather, © 2015

Note: Actual official high and low records may vary slightly from our data, if they occured in-between our weather recording intervals... More about our weather records

Advertising

Winterthur weather history for previous 24 hours

 ConditionsComfort  
Time TempWeatherWind HumidityBarometerVisibility
6:20 AM
Wed, Apr 1
41 °FPassing clouds.7 mph76%30.09 "HgN/A
5:50 AM39 °FPassing clouds.7 mph81%30.09 "HgN/A
5:20 AM37 °FSprinkles. Passing clouds.15 mph87%30.09 "HgN/A
4:50 AM45 °FPassing clouds.14 mph61%30.07 "HgN/A
4:20 AM43 °FPassing clouds.14 mph71%30.07 "HgN/A
3:50 AM43 °FPartly cloudy.14 mph71%30.07 "HgN/A
3:20 AM43 °FPartly cloudy.17 mph71%30.07 "HgN/A
2:50 AM41 °FSprinkles. Passing clouds.21 mph81%30.07 "HgN/A
1:50 AM46 °FRain showers. Partly cloudy.18 mph62%30.04 "HgN/A
1:20 AM48 °FPassing clouds.17 mph54%30.04 "HgN/A
12:50 AM48 °FPassing clouds.18 mph58%30.04 "HgN/A
12:20 AM48 °FPassing clouds.14 mph58%30.04 "HgN/A
11:50 PM
Tue, Mar 31
48 °FPassing clouds.18 mph54%30.04 "HgN/A
11:20 PM48 °FPassing clouds.18 mph54%30.01 "HgN/A
10:50 PM48 °FPassing clouds.16 mph58%30.01 "HgN/A
10:20 PM48 °FPassing clouds.10 mph62%30.01 "HgN/A
9:50 PM48 °FPassing clouds.14 mph62%30.01 "HgN/A
9:20 PM48 °FPassing clouds.16 mph62%29.98 "HgN/A
8:50 PM48 °FPassing clouds.15 mph62%29.98 "HgN/A
8:20 PM50 °FScattered showers. Passing clouds.18 mph62%29.98 "HgN/A
7:50 PM50 °FScattered showers. Scattered clouds.22 mph62%29.95 "HgN/A
7:20 PM52 °FPartly sunny.16 mph62%29.95 "HgN/A
6:50 PM52 °FScattered clouds.21 mph62%29.92 "HgN/A
6:20 PM52 °FScattered clouds.20 mph67%29.89 "HgN/A
5:50 PM52 °FScattered showers. Scattered clouds.17 mph72%29.89 "HgN/A
5:20 PM50 °FLight rain. Broken clouds.21 mph76%29.89 "HgN/A
4:50 PM50 °FRain. More clouds than sun.13 mph88%29.86 "Hg2 mi
4:20 PM50 °FRain showers. Broken clouds.18 mph82%29.86 "Hg2 mi
3:50 PM55 °FScattered showers. Broken clouds.21 mph55%29.86 "HgN/A
3:20 PM57 °FBroken clouds.28 mph59%29.83 "HgN/A
2:50 PM55 °FBroken clouds.28 mph59%29.83 "HgN/A
2:20 PM55 °FBroken clouds.26 mph63%29.80 "HgN/A
1:50 PM55 °FBroken clouds.26 mph72%29.83 "HgN/A
1:20 PM55 °FRain showers. Broken clouds.31 mph72%29.83 "HgN/A
12:50 PM57 °FBroken clouds.32 mph63%29.83 "HgN/A
12:20 PM57 °FBroken clouds.28 mph59%29.80 "HgN/A
11:50 AM59 °FBroken clouds.29 mph59%29.80 "HgN/A
11:20 AM59 °FBroken clouds.29 mph55%29.80 "HgN/A
10:50 AM57 °FBroken clouds.26 mph59%29.80 "HgN/A
10:20 AM57 °FBroken clouds.26 mph59%29.80 "HgN/A
9:50 AM57 °FBroken clouds.28 mph63%29.80 "HgN/A
9:20 AM57 °FBroken clouds.28 mph63%29.80 "HgN/A
8:50 AM55 °FBroken clouds.26 mph67%29.80 "HgN/A
8:20 AM55 °FBroken clouds.25 mph72%29.80 "HgN/A
7:50 AM54 °FPartly cloudy.22 mph77%29.83 "HgN/A
7:20 AM54 °FPartly cloudy.22 mph77%29.80 "HgN/A
Weather by CustomWeather, © 2015

See weather overviewHow to use our weather pages